PDT,Max TemperatureF,Mean TemperatureF,Min TemperatureF,Max Dew PointF,MeanDew PointF,Min DewpointF,Max Humidity, Mean Humidity, Min Humidity, Max Sea Level PressureIn, Mean Sea Level PressureIn, Min Sea Level PressureIn, Max VisibilityMiles, Mean VisibilityMiles, Min VisibilityMiles, Max Wind SpeedMPH, Mean Wind SpeedMPH, Max Gust SpeedMPH,PrecipitationIn, CloudCover, Events, WindDirDegrees
2013-9-1,84,71,57,59,56,50,93,63,32,29.96,29.93,29.89,10,10,10,13,4,16,T,1,,150
2013-9-2,81,72,62,59,58,56,84,66,47,29.97,29.93,29.89,10,10,10,13,4,20,T,3,Rain,182
2013-9-3,82,70,57,58,55,49,90,61,31,30.00,29.97,29.93,10,10,10,13,3,15,0.00,0,,197
2013-9-4,83,69,54,56,54,51,93,64,34,30.05,30.00,29.94,10,10,10,12,4,15,0.00,0,,205
2013-9-5,82,67,52,56,53,50,93,66,39,30.04,30.00,29.94,10,10,10,8,4,,0.00,0,,152
2013-9-6,90,72,53,55,51,45,89,55,21,30.01,29.91,29.83,10,10,10,14,4,22,0.00,0,,218
2013-9-7,81,68,54,57,54,48,100,71,42,29.90,29.88,29.85,10,8,1,14,3,28,T,2,Rain,204
2013-9-8,74,65,56,57,55,54,100,77,53,29.90,29.87,29.81,10,5,1,12,3,23,0.00,6,,183
2013-9-9,74,64,54,56,55,53,100,77,53,29.83,29.81,29.77,10,5,0,12,3,21,0.00,5,Fog,189
2013-9-10,68,62,56,57,56,54,100,84,68,29.94,29.85,29.79,10,6,1,13,4,18,0.01,8,Rain,226
2013-9-11,71,63,55,56,55,53,86,72,57,30.02,29.99,29.94,10,10,10,13,4,24,0.00,4,,231
2013-9-12,74,65,56,57,56,52,93,77,61,29.99,29.96,29.91,10,10,9,13,4,16,0.00,5,,144
2013-9-13,74,65,56,57,56,53,100,77,53,29.92,29.88,29.79,10,6,0,13,3,24,0.00,5,Fog,151
2013-9-14,75,64,53,55,54,52,93,71,49,29.85,29.81,29.75,10,10,6,10,3,16,0.00,4,,130
2013-9-15,77,64,51,56,52,48,93,71,49,29.88,29.84,29.81,10,9,0,10,4,14,0.00,3,Fog,278
2013-9-16,79,67,54,57,54,52,86,67,47,29.90,29.86,29.81,10,10,10,10,5,17,0.00,0,,133
2013-9-17,81,68,54,55,52,45,93,62,30,29.93,29.89,29.84,10,10,8,20,4,25,0.00,3,,190
2013-9-18,79,65,50,52,50,47,89,64,38,29.92,29.88,29.83,10,10,10,13,4,20,0.00,0,,257
2013-9-19,88,68,48,52,47,37,86,52,17,29.87,29.82,29.76,10,10,10,15,4,17,0.00,0,,237
2013-9-20,69,60,50,59,54,48,97,80,63,29.90,29.85,29.80,10,8,0,14,3,17,0.00,5,Fog,222
2013-9-21,70,62,54,61,57,52,100,84,68,29.93,29.88,29.85,10,9,2,18,6,25,0.07,7,Rain,210
2013-9-22,69,61,52,54,52,50,100,80,59,30.01,29.97,29.93,10,7,0,13,3,15,0.00,5,Fog,263
2013-9-23,82,67,51,57,51,48,89,61,33,30.02,29.97,29.91,10,10,10,13,4,15,0.00,0,,268
2013-9-24,80,67,53,55,51,47,93,64,35,30.01,29.95,29.90,10,10,10,15,5,20,0.00,0,,258
2013-9-25,75,62,48,48,44,40,86,58,29,29.96,29.90,29.83,10,10,10,17,5,28,0.00,0,,278
2013-9-26,73,59,45,48,44,38,86,57,27,30.00,29.91,29.85,10,10,10,15,5,20,0.00,0,,316
2013-9-27,76,60,43,45,41,37,83,54,25,30.09,30.05,30.00,10,10,10,15,4,26,0.00,0,,264
2013-9-28,83,65,47,50,39,28,77,46,14,30.09,30.05,30.00,10,10,10,22,4,,0.00,0,,213
2013-9-29,77,63,49,58,51,43,90,63,36,30.12,30.09,30.06,10,10,10,13,4,15,0.00,1,,149
2013-9-30,76,65,53,58,56,51,93,72,50,30.09,30.03,29.96,10,10,10,14,4,20,0.00,1,,259